This is the latest recevied weather packets stored in our database for station/object IA5FYI-13. If no packets are shown the sender has not sent any weather packets the latest 1 day(s).
| Time | Temp. | Humidity | Pressure | Rain* | Wind** | Luminosity | Snow |
|---|---|---|---|---|---|---|---|
| 1777977913 | 20° C | 85% | 1011.5 hPa | 0 mm | 4.92 m/s, 148° | - | - |
| 1777977613 | 20° C | 86% | 1011.5 hPa | 0 mm | 2.68 m/s, 153° | - | - |
| 1777977308 | 20° C | 86% | 1011.2 hPa | 0 mm | 2.68 m/s, 146° | - | - |
| 1777976709 | 20° C | 86% | 1011.5 hPa | 0 mm | 1.34 m/s, 195° | - | - |
| 1777976113 | 20° C | 86% | 1011.5 hPa | 0 mm | 2.68 m/s, 149° | - | - |
| 1777975813 | 20° C | 86% | 1011.5 hPa | 0 mm | 2.68 m/s, 149° | - | - |
| 1777975509 | 20° C | 86% | 1011.2 hPa | 0 mm | 3.58 m/s, 142° | - | - |
| 1777975232 | 20° C | 86% | 1011.9 hPa | 0 mm | 3.58 m/s, 129° | - | - |
| 1777974909 | 20° C | 86% | 1011.5 hPa | 0 mm | 3.13 m/s, 171° | - | - |
| 1777974613 | 18.89° C | 87% | 1011.5 hPa | 0 mm | 4.92 m/s, 147° | - | - |
| 1777974313 | 20° C | 87% | 1011.5 hPa | 0 mm | 1.79 m/s, 211° | - | - |
| 1777974014 | 20° C | 87% | 1011.5 hPa | 0 mm | 3.13 m/s, 145° | - | - |
| 1777973710 | 20° C | 87% | 1011.2 hPa | 0 mm | 3.13 m/s, 170° | - | - |
| 1777973423 | 20° C | 87% | 1011.2 hPa | 0 mm | 3.13 m/s, 134° | - | - |
| 1777973109 | 20° C | 88% | 1011.5 hPa | 0 mm | 0.89 m/s, 103° | - | - |
| 1777972813 | 20° C | 89% | 1011.5 hPa | 0 mm | 0.89 m/s, 100° | - | - |
| 1777972513 | 18.89° C | 89% | 1011.2 hPa | 0 mm | 1.79 m/s, 131° | - | - |
| 1777972213 | 18.89° C | 89% | 1011.5 hPa | 0 mm | 1.79 m/s, 130° | - | - |
| 1777971909 | 18.89° C | 89% | 1011.2 hPa | 0 mm | 2.68 m/s, 148° | - | - |
| 1777971632 | 18.89° C | 89% | 1011.2 hPa | 0.76 mm | 3.13 m/s, 117° | - | - |
| 1777971309 | 18.89° C | 90% | 1011.5 hPa | 0.76 mm | 5.36 m/s, 142° | - | - |
| 1777971013 | 18.89° C | 90% | 1011.5 hPa | 0.76 mm | 1.79 m/s, 100° | - | - |
| 1777970712 | 18.89° C | 90% | 1011.2 hPa | 0.76 mm | 2.24 m/s, 156° | - | - |
| 1777970413 | 18.89° C | 91% | 1011.2 hPa | 0.76 mm | 2.68 m/s, 171° | - | - |
| 1777970109 | 18.89° C | 90% | 1011.2 hPa | 0.76 mm | 3.13 m/s, 191° | - | - |
* Rain latest hour (hover to see other rain measurements)
** Current wind speed in m/s (hover to see current wind gust speed)